YZ-1 R/B, 44795

Orbit data source: Space-Track

YZ-1 R/B, 44795 is space debris originally from a launch on Sat, 23 Nov 2019 UTC launched from the Xichang Space Center, China (XSC). Debris objects in space refer to the collection of defunct objects orbiting the Earth. Examples of debris include non-operational satellites, rocket bodies, and fragments generated from explosions, collisions, or faulty payload assembly.

Loading next visibility...
Identifier
44795, 2019-078C
Orbit
Active
Country
Flag of CNCN / PRC
Related business
Manufacturer
CALT
Mission
Spacecraft
Bus & Motor
YZ-1, Unknown motor
Mass
~2,075 kg wet, ~2,075 kg dry
Launch date (UTC)
2019-11-23 (6 years ago)
Launch vehicle
Unknown
Launch site
Xichang Space Center, China (XSC)
Object type
Payload
Rocket body
Debris
Shape & HBR
Double Cone, 2.0 m
Radar Cross Section
5.890 m², Large (>1 m²)

Expand to show TLE details & history
Last TLE update: 1 week ago

TLE from 1 week ago
0 YZ-1 R/B
1 44795U 19078C   25300.82300367 -.00000037  00000-0  00000-0 0  9994
2 44795  54.4237 315.3290 0074058  47.8019 312.8593  1.78050171 38576
Epoch: 2025-10-27T19:45Z
TLE epoch observation values (Epoch: 2025-10-27T19:45:07.517Z)
Latitude
0.00004°
Longitude
-17.36626°
Altitude
22,232.781 km
Speed
3.742 km/s
True Right ascension
21h 01m 20s
True Declination
0° 00' 00"
Sunlit
Object was in daylight at epoch
Visualization orbit readout
Latitude
Unknown
Longitude
Unknown
Altitude
Unknown
Speed
Unknown
Apparent Right ascension
Unknown
Apparent Declination
Unknown
Sunlit
N/A
Visualization observer readout
Local Sidereal Time
03:32:54
Azimuth
Unknown
Elevation
Unknown
Doppler factor
Unknown
Orbital elements
Apogee altitude
22,589.416 km
Perigee altitude
22,163.514 km
Semi-major axis
28,754.602 km
Eccentricity
0.00741
Inclination
54.4237°
RAAN
315.329°
Arg. of periapsis
47.8019°
True anomaly
312.23329°
Mean anomaly
312.8593°
Eccentric anomaly
312.54669°
Mean motion
0.44513 °/min
Orbital period
808.76 mins
BSTAR
0
Loading maneuver chart data...
Computing Atmospheric mass density...
Loading historical data...
Loading historical data...
Loading historical data...
Loading historical data...
Loading historical data...
Loading historical data...
Loading historical data...
Other satellites on launch #78 in the year 2019 (2019-11-23 UTC)

Documentation

Showing up to 5 results
|